Year,Month,Day,Hour,Minute,Value (Times are PST for temperature in C)
2013,07,13,00,00,15.20
2013,07,13,00,01,15.20
2013,07,13,00,02,15.20
2013,07,13,00,03,15.20
2013,07,13,00,04,15.10
2013,07,13,00,05,15.10
2013,07,13,00,06,15.10
2013,07,13,00,07,15.10
2013,07,13,00,08,15.10
2013,07,13,00,09,15.10
2013,07,13,00,10,15.10
2013,07,13,00,11,15.10
2013,07,13,00,12,15.10
2013,07,13,00,13,15.10
2013,07,13,00,14,15.00
2013,07,13,00,15,15.00
2013,07,13,00,16,15.00
2013,07,13,00,17,14.90
2013,07,13,00,18,14.90
2013,07,13,00,19,14.90
2013,07,13,00,20,14.90
2013,07,13,00,21,14.90
2013,07,13,00,22,14.90
2013,07,13,00,23,14.80
2013,07,13,00,24,14.80
2013,07,13,00,25,14.80
2013,07,13,00,26,14.80
2013,07,13,00,27,14.80
2013,07,13,00,28,14.70
2013,07,13,00,29,14.70
2013,07,13,00,30,14.70
2013,07,13,00,31,14.70
2013,07,13,00,32,14.70
2013,07,13,00,33,14.60
2013,07,13,00,34,14.60
2013,07,13,00,35,14.60
2013,07,13,00,36,14.60
2013,07,13,00,37,14.60
2013,07,13,00,38,14.50
2013,07,13,00,39,14.50
2013,07,13,00,40,14.50
2013,07,13,00,41,14.50
2013,07,13,00,42,14.50
2013,07,13,00,43,14.40
2013,07,13,00,44,14.40
2013,07,13,00,45,14.50
2013,07,13,00,46,14.60
2013,07,13,00,47,14.60
2013,07,13,00,48,14.60
2013,07,13,00,49,14.70
2013,07,13,00,50,14.70
2013,07,13,00,51,14.70
2013,07,13,00,52,14.80
2013,07,13,00,53,14.80
2013,07,13,00,54,14.80
2013,07,13,00,55,14.90
2013,07,13,00,56,14.90
2013,07,13,00,57,15.00
2013,07,13,00,58,15.00
2013,07,13,00,59,15.10
2013,07,13,01,00,15.20
2013,07,13,01,01,15.30
2013,07,13,01,02,15.40
2013,07,13,01,03,15.50
2013,07,13,01,04,15.60
2013,07,13,01,05,15.70
2013,07,13,01,06,15.70
2013,07,13,01,07,15.80
2013,07,13,01,08,15.80
2013,07,13,01,09,15.90
2013,07,13,01,10,16.00
2013,07,13,01,11,16.10
2013,07,13,01,12,16.10
2013,07,13,01,13,16.20
2013,07,13,01,14,16.30
2013,07,13,01,15,16.30
2013,07,13,01,16,16.30
2013,07,13,01,17,16.40
2013,07,13,01,18,16.40
2013,07,13,01,19,16.40
2013,07,13,01,20,16.40
2013,07,13,01,21,16.40
2013,07,13,01,22,16.40
2013,07,13,01,23,16.40
2013,07,13,01,24,16.40
2013,07,13,01,25,16.40
2013,07,13,01,26,16.40
2013,07,13,01,27,16.40
2013,07,13,01,28,16.40
2013,07,13,01,29,16.40
2013,07,13,01,30,16.30
2013,07,13,01,31,16.30
2013,07,13,01,32,16.30
2013,07,13,01,33,16.20
2013,07,13,01,34,16.20
2013,07,13,01,35,16.10
2013,07,13,01,36,16.10
2013,07,13,01,37,16.00
2013,07,13,01,38,16.00
2013,07,13,01,39,15.90
2013,07,13,01,40,15.90
2013,07,13,01,41,15.90
2013,07,13,01,42,15.80
2013,07,13,01,43,15.80
2013,07,13,01,44,15.70
2013,07,13,01,45,15.70
2013,07,13,01,46,15.70
2013,07,13,01,47,15.60
2013,07,13,01,48,15.60
2013,07,13,01,49,15.50
2013,07,13,01,50,15.50
2013,07,13,01,51,15.40
2013,07,13,01,52,15.40
2013,07,13,01,53,15.30
2013,07,13,01,54,15.30
2013,07,13,01,55,15.30
2013,07,13,01,56,15.20
2013,07,13,01,57,15.20
2013,07,13,01,58,15.20
2013,07,13,01,59,15.10
2013,07,13,02,00,15.00
2013,07,13,02,01,15.00
2013,07,13,02,02,14.90
2013,07,13,02,03,14.90
2013,07,13,02,04,14.80
2013,07,13,02,05,14.80
2013,07,13,02,06,14.70
2013,07,13,02,07,14.70
2013,07,13,02,08,14.60
2013,07,13,02,09,14.60
2013,07,13,02,10,14.50
2013,07,13,02,11,14.40
2013,07,13,02,12,14.40
2013,07,13,02,13,14.30
2013,07,13,02,14,14.30
2013,07,13,02,15,14.20
2013,07,13,02,16,14.10
2013,07,13,02,17,14.10
2013,07,13,02,18,14.00
2013,07,13,02,19,14.00
2013,07,13,02,20,13.90
2013,07,13,02,21,13.80
2013,07,13,02,22,13.80
2013,07,13,02,23,13.80
2013,07,13,02,24,13.70
2013,07,13,02,25,13.70
2013,07,13,02,26,13.60
2013,07,13,02,27,13.60
2013,07,13,02,28,13.50
2013,07,13,02,29,13.50
2013,07,13,02,30,13.40
2013,07,13,02,31,13.40
2013,07,13,02,32,13.30
2013,07,13,02,33,13.30
2013,07,13,02,34,13.30
2013,07,13,02,35,13.30
2013,07,13,02,36,13.20
2013,07,13,02,37,13.20
2013,07,13,02,38,13.20
2013,07,13,02,39,13.10
2013,07,13,02,40,13.10
2013,07,13,02,41,13.10
2013,07,13,02,42,13.10
2013,07,13,02,43,13.00
2013,07,13,02,44,13.00
2013,07,13,02,45,13.00
2013,07,13,02,46,12.90
2013,07,13,02,47,12.90
2013,07,13,02,48,12.90
2013,07,13,02,49,12.90
2013,07,13,02,50,12.90
2013,07,13,02,51,12.90
2013,07,13,02,52,12.80
2013,07,13,02,53,12.80
2013,07,13,02,54,12.80
2013,07,13,02,55,12.80
2013,07,13,02,56,12.80
2013,07,13,02,57,12.80
2013,07,13,02,58,12.80
2013,07,13,02,59,12.80
2013,07,13,03,00,12.70
2013,07,13,03,01,12.70
2013,07,13,03,02,12.70
2013,07,13,03,03,12.70
2013,07,13,03,04,12.70
2013,07,13,03,05,12.70
2013,07,13,03,06,12.70
2013,07,13,03,07,12.70
2013,07,13,03,08,12.60
2013,07,13,03,09,12.60
2013,07,13,03,10,12.60
2013,07,13,03,11,12.60
2013,07,13,03,12,12.60
2013,07,13,03,13,12.60
2013,07,13,03,14,12.60
2013,07,13,03,15,12.50
2013,07,13,03,16,12.50
2013,07,13,03,17,12.50
2013,07,13,03,18,12.50
2013,07,13,03,19,12.40
2013,07,13,03,20,12.40
2013,07,13,03,21,12.40
2013,07,13,03,22,12.40
2013,07,13,03,23,12.40
2013,07,13,03,24,12.40
2013,07,13,03,25,12.40
2013,07,13,03,26,12.40
2013,07,13,03,27,12.40
2013,07,13,03,28,12.40
2013,07,13,03,29,12.30
2013,07,13,03,30,12.30
2013,07,13,03,31,12.30
2013,07,13,03,32,12.30
2013,07,13,03,33,12.30
2013,07,13,03,34,12.30
2013,07,13,03,35,12.30
2013,07,13,03,36,12.30
2013,07,13,03,37,12.30
2013,07,13,03,38,12.30
2013,07,13,03,39,12.30
2013,07,13,03,40,12.30
2013,07,13,03,41,12.20
2013,07,13,03,42,12.20
2013,07,13,03,43,12.20
2013,07,13,03,44,12.20
2013,07,13,03,45,12.20
2013,07,13,03,46,12.20
2013,07,13,03,47,12.20
2013,07,13,03,48,12.20
2013,07,13,03,49,12.20
2013,07,13,03,50,12.20
2013,07,13,03,51,12.10
2013,07,13,03,52,12.10
2013,07,13,03,53,12.10
2013,07,13,03,54,12.10
2013,07,13,03,55,12.10
2013,07,13,03,56,12.10
2013,07,13,03,57,12.10
2013,07,13,03,58,12.00
2013,07,13,03,59,12.00
2013,07,13,04,00,12.00
2013,07,13,04,01,12.00
2013,07,13,04,02,12.00
2013,07,13,04,03,11.90
2013,07,13,04,04,11.90
2013,07,13,04,05,11.90
2013,07,13,04,06,11.90
2013,07,13,04,07,11.90
2013,07,13,04,08,11.90
2013,07,13,04,09,11.90
2013,07,13,04,10,11.80
2013,07,13,04,11,11.80
2013,07,13,04,12,11.80
2013,07,13,04,13,11.80
2013,07,13,04,14,11.80
2013,07,13,04,15,11.80
2013,07,13,04,16,11.80
2013,07,13,04,17,11.80
2013,07,13,04,18,11.80
2013,07,13,04,19,11.80
2013,07,13,04,20,11.80
2013,07,13,04,21,11.70
2013,07,13,04,22,11.70
2013,07,13,04,23,11.70
2013,07,13,04,24,11.70
2013,07,13,04,25,11.70
2013,07,13,04,26,11.70
2013,07,13,04,27,11.70
2013,07,13,04,28,11.70
2013,07,13,04,29,11.70
2013,07,13,04,30,11.60
2013,07,13,04,31,11.60
2013,07,13,04,32,11.60
2013,07,13,04,33,11.60
2013,07,13,04,34,11.60
2013,07,13,04,35,11.60
2013,07,13,04,36,11.60
2013,07,13,04,37,11.60
2013,07,13,04,38,11.60
2013,07,13,04,39,11.60
2013,07,13,04,40,11.60
2013,07,13,04,41,11.50
2013,07,13,04,42,11.50
2013,07,13,04,43,11.50
2013,07,13,04,44,11.50
2013,07,13,04,45,11.50
2013,07,13,04,46,11.50
2013,07,13,04,47,11.40
2013,07,13,04,48,11.40
2013,07,13,04,49,11.40
2013,07,13,04,50,11.40
2013,07,13,04,51,11.40
2013,07,13,04,52,11.40
2013,07,13,04,53,11.40
2013,07,13,04,54,11.40
2013,07,13,04,55,11.30
2013,07,13,04,56,11.30
2013,07,13,04,57,11.30
2013,07,13,04,58,11.30
2013,07,13,04,59,11.30
2013,07,13,05,00,11.30
2013,07,13,05,01,11.30
2013,07,13,05,02,11.30
2013,07,13,05,03,11.30
2013,07,13,05,04,11.30
2013,07,13,05,05,11.30
2013,07,13,05,06,11.30
2013,07,13,05,07,11.30
2013,07,13,05,08,11.20
2013,07,13,05,09,11.20
2013,07,13,05,10,11.20
2013,07,13,05,11,11.20
2013,07,13,05,12,11.20
2013,07,13,05,13,11.20
2013,07,13,05,14,11.20
2013,07,13,05,15,11.20
2013,07,13,05,16,11.20
2013,07,13,05,17,11.20
2013,07,13,05,18,11.20
2013,07,13,05,19,11.20
2013,07,13,05,20,11.20
2013,07,13,05,21,11.20
2013,07,13,05,22,11.20
2013,07,13,05,23,11.30
2013,07,13,05,24,11.20
2013,07,13,05,25,11.30
2013,07,13,05,26,11.30
2013,07,13,05,27,11.30
2013,07,13,05,28,11.20
2013,07,13,05,29,11.20
2013,07,13,05,30,11.20
2013,07,13,05,31,11.20
2013,07,13,05,32,11.20
2013,07,13,05,33,11.20
2013,07,13,05,34,11.20
2013,07,13,05,35,11.20
2013,07,13,05,36,11.20
2013,07,13,05,37,11.20
2013,07,13,05,38,11.20
2013,07,13,05,39,11.20
2013,07,13,05,40,11.20
2013,07,13,05,41,11.20
2013,07,13,05,42,11.20
2013,07,13,05,43,11.10
2013,07,13,05,44,11.10
2013,07,13,05,45,11.10
2013,07,13,05,46,11.10
2013,07,13,05,47,11.10
2013,07,13,05,48,11.10
2013,07,13,05,49,11.10
2013,07,13,05,50,11.10
2013,07,13,05,51,11.10
2013,07,13,05,52,11.10
2013,07,13,05,53,11.10
2013,07,13,05,54,11.10
2013,07,13,05,55,11.10
2013,07,13,05,56,11.10
2013,07,13,05,57,11.10
2013,07,13,05,58,11.10
2013,07,13,05,59,11.10
2013,07,13,06,00,11.10
2013,07,13,06,01,11.10
2013,07,13,06,02,11.10
2013,07,13,06,03,11.10
2013,07,13,06,04,11.10
2013,07,13,06,05,11.10
2013,07,13,06,06,11.10
2013,07,13,06,07,11.10
2013,07,13,06,08,11.10
2013,07,13,06,09,11.10
2013,07,13,06,10,11.10
2013,07,13,06,11,11.10
2013,07,13,06,12,11.10
2013,07,13,06,13,11.10
2013,07,13,06,14,11.20
2013,07,13,06,15,11.20
2013,07,13,06,16,11.20
2013,07,13,06,17,11.20
2013,07,13,06,18,11.20
2013,07,13,06,19,11.20
2013,07,13,06,20,11.20
2013,07,13,06,21,11.20
2013,07,13,06,22,11.20
2013,07,13,06,23,11.20
2013,07,13,06,24,11.20
2013,07,13,06,25,11.30
2013,07,13,06,26,11.30
2013,07,13,06,27,11.30
2013,07,13,06,28,11.30
2013,07,13,06,29,11.30
2013,07,13,06,30,11.30
2013,07,13,06,31,11.30
2013,07,13,06,32,11.30
2013,07,13,06,33,11.40
2013,07,13,06,34,11.40
2013,07,13,06,35,11.40
2013,07,13,06,36,11.40
2013,07,13,06,37,11.40
2013,07,13,06,38,11.50
2013,07,13,06,39,11.50
2013,07,13,06,40,11.50
2013,07,13,06,41,11.60
2013,07,13,06,42,11.60
2013,07,13,06,43,11.70
2013,07,13,06,44,11.70
2013,07,13,06,45,11.70
2013,07,13,06,46,11.70
2013,07,13,06,47,11.80
2013,07,13,06,48,11.80
2013,07,13,06,49,11.80
2013,07,13,06,50,11.80
2013,07,13,06,51,11.90
2013,07,13,06,52,11.90
2013,07,13,06,53,11.90
2013,07,13,06,54,11.90
2013,07,13,06,55,11.90
2013,07,13,06,56,11.90
2013,07,13,06,57,12.00
2013,07,13,06,58,12.00
2013,07,13,06,59,12.00
2013,07,13,07,00,12.00
2013,07,13,07,01,12.00
2013,07,13,07,02,12.10
2013,07,13,07,03,12.10
2013,07,13,07,04,12.10
2013,07,13,07,05,12.10
2013,07,13,07,06,12.10
2013,07,13,07,07,12.20
2013,07,13,07,08,12.20
2013,07,13,07,09,12.20
2013,07,13,07,10,12.20
2013,07,13,07,11,12.20
2013,07,13,07,12,12.20
2013,07,13,07,13,12.30
2013,07,13,07,14,12.30
2013,07,13,07,15,12.30
2013,07,13,07,16,12.40
2013,07,13,07,17,12.40
2013,07,13,07,18,12.40
2013,07,13,07,19,12.40
2013,07,13,07,20,12.40
2013,07,13,07,21,12.50
2013,07,13,07,22,12.50
2013,07,13,07,23,12.60
2013,07,13,07,24,12.60
2013,07,13,07,25,12.60
2013,07,13,07,26,12.70
2013,07,13,07,27,12.70
2013,07,13,07,28,12.70
2013,07,13,07,29,12.80
2013,07,13,07,30,12.90
2013,07,13,07,31,12.90
2013,07,13,07,32,13.00
2013,07,13,07,33,13.00
2013,07,13,07,34,13.20
2013,07,13,07,35,13.30
2013,07,13,07,36,13.40
2013,07,13,07,37,13.60
2013,07,13,07,38,13.70
2013,07,13,07,39,13.80
2013,07,13,07,40,14.00
2013,07,13,07,41,14.10
2013,07,13,07,42,14.20
2013,07,13,07,43,14.30
2013,07,13,07,44,14.40
2013,07,13,07,45,14.50
2013,07,13,07,46,14.50
2013,07,13,07,47,14.60
2013,07,13,07,48,14.70
2013,07,13,07,49,14.70
2013,07,13,07,50,14.80
2013,07,13,07,51,14.80
2013,07,13,07,52,14.80
2013,07,13,07,53,14.90
2013,07,13,07,54,14.90
2013,07,13,07,55,14.90
2013,07,13,07,56,15.00
2013,07,13,07,57,15.00
2013,07,13,07,58,15.00
2013,07,13,07,59,15.10
2013,07,13,08,00,15.10
2013,07,13,08,01,15.10
2013,07,13,08,02,15.10
2013,07,13,08,03,15.10
2013,07,13,08,04,15.10
2013,07,13,08,05,15.10
2013,07,13,08,06,15.20
2013,07,13,08,07,15.20
2013,07,13,08,08,15.20
2013,07,13,08,09,15.20
2013,07,13,08,10,15.20
2013,07,13,08,11,15.20
2013,07,13,08,12,15.20
2013,07,13,08,13,15.30
2013,07,13,08,14,15.30
2013,07,13,08,15,15.30
2013,07,13,08,16,15.30
2013,07,13,08,17,15.30
2013,07,13,08,18,15.30
2013,07,13,08,19,15.30
2013,07,13,08,20,15.30
2013,07,13,08,21,15.40
2013,07,13,08,22,15.40
2013,07,13,08,23,15.40
2013,07,13,08,24,15.40
2013,07,13,08,25,15.40
2013,07,13,08,26,15.50
2013,07,13,08,27,15.50
2013,07,13,08,28,15.50
2013,07,13,08,29,15.60
2013,07,13,08,30,15.60
2013,07,13,08,31,15.60
2013,07,13,08,32,15.60
2013,07,13,08,33,15.70
2013,07,13,08,34,15.70
2013,07,13,08,35,15.70
2013,07,13,08,36,15.70
2013,07,13,08,37,15.70
2013,07,13,08,38,15.70
2013,07,13,08,39,15.80
2013,07,13,08,40,15.80
2013,07,13,08,41,15.80
2013,07,13,08,42,15.80
2013,07,13,08,43,15.80
2013,07,13,08,44,15.80
2013,07,13,08,45,15.80
2013,07,13,08,46,15.80
2013,07,13,08,47,15.80
2013,07,13,08,48,15.80
2013,07,13,08,49,15.80
2013,07,13,08,50,15.90
2013,07,13,08,51,15.90
2013,07,13,08,52,15.90
2013,07,13,08,53,15.90
2013,07,13,08,54,15.90
2013,07,13,08,55,15.90
2013,07,13,08,56,15.90
2013,07,13,08,57,15.90
2013,07,13,08,58,15.90
2013,07,13,08,59,15.90
2013,07,13,09,00,15.90
2013,07,13,09,01,15.90
2013,07,13,09,02,16.00
2013,07,13,09,03,16.10
2013,07,13,09,04,16.10
2013,07,13,09,05,16.10
2013,07,13,09,06,16.10
2013,07,13,09,07,16.10
2013,07,13,09,08,16.10
2013,07,13,09,09,16.20
2013,07,13,09,10,16.20
2013,07,13,09,11,16.20
2013,07,13,09,12,16.20
2013,07,13,09,13,16.20
2013,07,13,09,14,16.30
2013,07,13,09,15,16.30
2013,07,13,09,16,16.20
2013,07,13,09,17,16.20
2013,07,13,09,18,16.20
2013,07,13,09,19,16.20
2013,07,13,09,20,16.20
2013,07,13,09,21,16.30
2013,07,13,09,22,16.30
2013,07,13,09,23,16.30
2013,07,13,09,24,16.30
2013,07,13,09,25,16.30
2013,07,13,09,26,16.30
2013,07,13,09,27,16.30
2013,07,13,09,28,16.40
2013,07,13,09,29,16.50
2013,07,13,09,30,16.50
2013,07,13,09,31,16.60
2013,07,13,09,32,16.60
2013,07,13,09,33,16.70
2013,07,13,09,34,16.70
2013,07,13,09,35,16.70
2013,07,13,09,36,16.80
2013,07,13,09,37,16.80
2013,07,13,09,38,16.80
2013,07,13,09,39,16.80
2013,07,13,09,40,16.70
2013,07,13,09,41,16.70
2013,07,13,09,42,16.70
2013,07,13,09,43,16.70
2013,07,13,09,44,16.60
2013,07,13,09,45,16.60
2013,07,13,09,46,16.70
2013,07,13,09,47,16.70
2013,07,13,09,48,16.60
2013,07,13,09,49,16.60
2013,07,13,09,50,16.60
2013,07,13,09,51,16.70
2013,07,13,09,52,16.80
2013,07,13,09,53,16.80
2013,07,13,09,54,16.80
2013,07,13,09,55,16.80
2013,07,13,09,56,16.80
2013,07,13,09,57,16.90
2013,07,13,09,58,16.90
2013,07,13,09,59,16.90
2013,07,13,10,00,16.90
2013,07,13,10,01,16.90
2013,07,13,10,02,17.00
2013,07,13,10,03,17.10
2013,07,13,10,04,17.10
2013,07,13,10,05,17.10
2013,07,13,10,06,17.10
2013,07,13,10,07,17.20
2013,07,13,10,08,17.20
2013,07,13,10,09,17.20
2013,07,13,10,10,17.20
2013,07,13,10,11,17.20
2013,07,13,10,12,17.20
2013,07,13,10,13,17.20
2013,07,13,10,14,17.20
2013,07,13,10,15,17.10
2013,07,13,10,16,17.10
2013,07,13,10,17,17.00
2013,07,13,10,18,17.00
2013,07,13,10,19,16.90
2013,07,13,10,20,16.90
2013,07,13,10,21,16.90
2013,07,13,10,22,17.00
2013,07,13,10,23,17.10
2013,07,13,10,24,17.10
2013,07,13,10,25,17.10
2013,07,13,10,26,17.10
2013,07,13,10,27,17.20
2013,07,13,10,28,17.20
2013,07,13,10,29,17.20
2013,07,13,10,30,17.10
2013,07,13,10,31,17.10
2013,07,13,10,32,17.10
2013,07,13,10,33,17.10
2013,07,13,10,34,17.20
2013,07,13,10,35,17.20
2013,07,13,10,36,17.20
2013,07,13,10,37,17.20
2013,07,13,10,38,17.20
2013,07,13,10,39,17.30
2013,07,13,10,40,17.30
2013,07,13,10,41,17.30
2013,07,13,10,42,17.30
2013,07,13,10,43,17.30
2013,07,13,10,44,17.30
2013,07,13,10,45,17.30
2013,07,13,10,46,17.30
2013,07,13,10,47,17.20
2013,07,13,10,48,17.20
2013,07,13,10,49,17.30
2013,07,13,10,50,17.30
2013,07,13,10,51,17.30
2013,07,13,10,52,17.30
2013,07,13,10,53,17.40
2013,07,13,10,54,17.40
2013,07,13,10,55,17.50
2013,07,13,10,56,17.50
2013,07,13,10,57,17.50
2013,07,13,10,58,17.50
2013,07,13,10,59,17.50
2013,07,13,11,00,17.40
2013,07,13,11,01,17.40
2013,07,13,11,02,17.40
2013,07,13,11,03,17.40
2013,07,13,11,04,17.30
2013,07,13,11,05,17.40
2013,07,13,11,06,17.40
2013,07,13,11,07,17.50
2013,07,13,11,08,17.50
2013,07,13,11,09,17.50
2013,07,13,11,10,17.50
2013,07,13,11,11,17.60
2013,07,13,11,12,17.60
2013,07,13,11,13,17.60
2013,07,13,11,14,17.60
2013,07,13,11,15,17.70
2013,07,13,11,16,17.70
2013,07,13,11,17,17.80
2013,07,13,11,18,17.80
2013,07,13,11,19,17.80
2013,07,13,11,20,17.90
2013,07,13,11,21,17.90
2013,07,13,11,22,17.90
2013,07,13,11,23,17.90
2013,07,13,11,24,17.90
2013,07,13,11,25,18.00
2013,07,13,11,26,18.00
2013,07,13,11,27,18.00
2013,07,13,11,28,18.00
2013,07,13,11,29,18.10
2013,07,13,11,30,18.10
2013,07,13,11,31,18.10
2013,07,13,11,32,18.10
2013,07,13,11,33,18.20
2013,07,13,11,34,18.20
2013,07,13,11,35,18.30
2013,07,13,11,36,18.20
2013,07,13,11,37,18.20
2013,07,13,11,38,18.20
2013,07,13,11,39,18.20
2013,07,13,11,40,18.20
2013,07,13,11,41,18.20
2013,07,13,11,42,18.20
2013,07,13,11,43,18.20
2013,07,13,11,44,18.30
2013,07,13,11,45,18.30
2013,07,13,11,46,18.30
2013,07,13,11,47,18.40
2013,07,13,11,48,18.50
2013,07,13,11,49,18.60
2013,07,13,11,50,18.60
2013,07,13,11,51,18.60
2013,07,13,11,52,18.60
2013,07,13,11,53,18.60
2013,07,13,11,54,18.60
2013,07,13,11,55,18.60
2013,07,13,11,56,18.60
2013,07,13,11,57,18.60
2013,07,13,11,58,18.60
2013,07,13,11,59,18.60
2013,07,13,12,00,18.60
2013,07,13,12,01,18.70
2013,07,13,12,02,18.70
2013,07,13,12,03,18.60
2013,07,13,12,04,18.70
2013,07,13,12,05,18.70
2013,07,13,12,06,18.70
2013,07,13,12,07,18.60
2013,07,13,12,08,18.60
2013,07,13,12,09,18.50
2013,07,13,12,10,18.50
2013,07,13,12,11,18.60
2013,07,13,12,12,18.50
2013,07,13,12,13,18.50
2013,07,13,12,14,18.50
2013,07,13,12,15,18.40
2013,07,13,12,16,18.40
2013,07,13,12,17,18.50
2013,07,13,12,18,18.50
2013,07,13,12,19,18.60
2013,07,13,12,20,18.70
2013,07,13,12,21,18.80
2013,07,13,12,22,18.90
2013,07,13,12,23,19.10
2013,07,13,12,24,19.20
2013,07,13,12,25,19.20
2013,07,13,12,26,19.20
2013,07,13,12,27,19.30
2013,07,13,12,28,19.30
2013,07,13,12,29,19.30
2013,07,13,12,30,19.30
2013,07,13,12,31,19.40
2013,07,13,12,32,19.50
2013,07,13,12,33,19.60
2013,07,13,12,34,19.60
2013,07,13,12,35,19.80
2013,07,13,12,36,19.80
2013,07,13,12,37,19.80
2013,07,13,12,38,19.70
2013,07,13,12,39,19.70
2013,07,13,12,40,19.60
2013,07,13,12,41,19.70
2013,07,13,12,42,19.70
2013,07,13,12,43,19.80
2013,07,13,12,44,19.80
2013,07,13,12,45,19.80
2013,07,13,12,46,19.70
2013,07,13,12,47,19.60
2013,07,13,12,48,19.50
2013,07,13,12,49,19.40
2013,07,13,12,50,19.30
2013,07,13,12,51,19.20
2013,07,13,12,52,19.20
2013,07,13,12,53,19.10
2013,07,13,12,54,19.10
2013,07,13,12,55,19.10
2013,07,13,12,56,19.10
2013,07,13,12,57,19.20
2013,07,13,12,58,19.30
2013,07,13,12,59,19.40
2013,07,13,13,00,19.50
2013,07,13,13,01,19.60
2013,07,13,13,02,19.70
2013,07,13,13,03,19.80
2013,07,13,13,04,19.80
2013,07,13,13,05,19.90
2013,07,13,13,06,19.90
2013,07,13,13,07,19.80
2013,07,13,13,08,19.90
2013,07,13,13,09,19.80
2013,07,13,13,10,19.80
2013,07,13,13,11,19.80
2013,07,13,13,12,19.80
2013,07,13,13,13,19.90
2013,07,13,13,14,19.90
2013,07,13,13,15,20.00
2013,07,13,13,16,20.10
2013,07,13,13,17,20.20
2013,07,13,13,18,20.30
2013,07,13,13,19,20.40
2013,07,13,13,20,20.40
2013,07,13,13,21,20.40
2013,07,13,13,22,20.40
2013,07,13,13,23,20.40
2013,07,13,13,24,20.30
2013,07,13,13,25,20.10
2013,07,13,13,26,20.00
2013,07,13,13,27,19.80
2013,07,13,13,28,19.70
2013,07,13,13,29,19.60
2013,07,13,13,30,19.60
2013,07,13,13,31,19.80
2013,07,13,13,32,19.90
2013,07,13,13,33,20.10
2013,07,13,13,34,20.20
2013,07,13,13,35,20.40
2013,07,13,13,36,20.60
2013,07,13,13,37,20.70
2013,07,13,13,38,20.80
2013,07,13,13,39,20.90
2013,07,13,13,40,20.90
2013,07,13,13,41,20.90
2013,07,13,13,42,20.90
2013,07,13,13,43,20.90
2013,07,13,13,44,20.90
2013,07,13,13,45,20.90
2013,07,13,13,46,21.00
2013,07,13,13,47,21.00
2013,07,13,13,48,21.10
2013,07,13,13,49,21.10
2013,07,13,13,50,21.20
2013,07,13,13,51,21.30
2013,07,13,13,52,21.40
2013,07,13,13,53,21.50
2013,07,13,13,54,21.50
2013,07,13,13,55,21.50
2013,07,13,13,56,21.40
2013,07,13,13,57,21.30
2013,07,13,13,58,21.30
2013,07,13,13,59,21.30
2013,07,13,14,00,21.40
2013,07,13,14,01,21.50
2013,07,13,14,02,21.60
2013,07,13,14,03,21.70
2013,07,13,14,04,21.90
2013,07,13,14,05,22.10
2013,07,13,14,06,22.30
2013,07,13,14,07,22.50
2013,07,13,14,08,22.70
2013,07,13,14,09,22.80
2013,07,13,14,10,23.00
2013,07,13,14,11,23.10
2013,07,13,14,12,23.20
2013,07,13,14,13,23.20
2013,07,13,14,14,23.30
2013,07,13,14,15,23.30
2013,07,13,14,16,23.40
2013,07,13,14,17,23.40
2013,07,13,14,18,23.50
2013,07,13,14,19,23.50
2013,07,13,14,20,23.60
2013,07,13,14,21,23.60
2013,07,13,14,22,23.70
2013,07,13,14,23,23.70
2013,07,13,14,24,23.80
2013,07,13,14,25,23.90
2013,07,13,14,26,23.90
2013,07,13,14,27,23.90
2013,07,13,14,28,23.90
2013,07,13,14,29,23.90
2013,07,13,14,30,23.90
2013,07,13,14,31,23.80
2013,07,13,14,32,23.90
2013,07,13,14,33,23.90
2013,07,13,14,34,23.90
2013,07,13,14,35,23.90
2013,07,13,14,36,23.90
2013,07,13,14,37,23.80
2013,07,13,14,38,23.80
2013,07,13,14,39,23.90
2013,07,13,14,40,23.90
2013,07,13,14,41,23.90
2013,07,13,14,42,23.90
2013,07,13,14,43,23.90
2013,07,13,14,44,23.90
2013,07,13,14,45,23.90
2013,07,13,14,46,23.80
2013,07,13,14,47,23.60
2013,07,13,14,48,23.50
2013,07,13,14,49,23.50
2013,07,13,14,50,23.40
2013,07,13,14,51,23.40
2013,07,13,14,52,23.50
2013,07,13,14,53,23.40
2013,07,13,14,54,23.30
2013,07,13,14,55,23.20
2013,07,13,14,56,23.10
2013,07,13,14,57,23.10
2013,07,13,14,58,23.10
2013,07,13,14,59,23.20
2013,07,13,15,00,23.30
2013,07,13,15,01,23.40
2013,07,13,15,02,23.50
2013,07,13,15,03,23.60
2013,07,13,15,04,23.70
2013,07,13,15,05,23.70
2013,07,13,15,06,23.60
2013,07,13,15,07,23.60
2013,07,13,15,08,23.60
2013,07,13,15,09,23.50
2013,07,13,15,10,23.50
2013,07,13,15,11,23.50
2013,07,13,15,12,23.50
2013,07,13,15,13,23.60
2013,07,13,15,14,23.70
2013,07,13,15,15,23.80
2013,07,13,15,16,23.90
2013,07,13,15,17,24.00
2013,07,13,15,18,24.10
2013,07,13,15,19,24.20
2013,07,13,15,20,24.30
2013,07,13,15,21,24.40
2013,07,13,15,22,24.50
2013,07,13,15,23,24.60
2013,07,13,15,24,24.60
2013,07,13,15,25,24.60
2013,07,13,15,26,24.60
2013,07,13,15,27,24.50
2013,07,13,15,28,24.40
2013,07,13,15,29,24.40
2013,07,13,15,30,24.30
2013,07,13,15,31,24.40
2013,07,13,15,32,24.50
2013,07,13,15,33,24.60
2013,07,13,15,34,24.60
2013,07,13,15,35,24.50
2013,07,13,15,36,24.40
2013,07,13,15,37,24.30
2013,07,13,15,38,24.30
2013,07,13,15,39,24.30
2013,07,13,15,40,24.20
2013,07,13,15,41,24.20
2013,07,13,15,42,24.00
2013,07,13,15,43,24.00
2013,07,13,15,44,24.00
2013,07,13,15,45,24.00
2013,07,13,15,46,24.10
2013,07,13,15,47,24.10
2013,07,13,15,48,24.20
2013,07,13,15,49,24.20
2013,07,13,15,50,24.20
2013,07,13,15,51,24.20
2013,07,13,15,52,24.20
2013,07,13,15,53,24.20
2013,07,13,15,54,24.10
2013,07,13,15,55,24.00
2013,07,13,15,56,24.00
2013,07,13,15,57,24.00
2013,07,13,15,58,24.10
2013,07,13,15,59,24.10
2013,07,13,16,00,24.10
2013,07,13,16,01,24.10
2013,07,13,16,02,24.10
2013,07,13,16,03,24.00
2013,07,13,16,04,24.00
2013,07,13,16,05,24.00
2013,07,13,16,06,24.00
2013,07,13,16,07,24.00
2013,07,13,16,08,24.00
2013,07,13,16,09,24.00
2013,07,13,16,10,24.00
2013,07,13,16,11,24.10
2013,07,13,16,12,24.20
2013,07,13,16,13,24.30
2013,07,13,16,14,24.30
2013,07,13,16,15,24.30
2013,07,13,16,16,24.20
2013,07,13,16,17,24.20
2013,07,13,16,18,24.20
2013,07,13,16,19,24.20
2013,07,13,16,20,24.20
2013,07,13,16,21,24.20
2013,07,13,16,22,24.20
2013,07,13,16,23,24.20
2013,07,13,16,24,24.30
2013,07,13,16,25,24.30
2013,07,13,16,26,24.30
2013,07,13,16,27,24.30
2013,07,13,16,28,24.40
2013,07,13,16,29,24.30
2013,07,13,16,30,24.30
2013,07,13,16,31,24.40
2013,07,13,16,32,24.40
2013,07,13,16,33,24.40
2013,07,13,16,34,24.40
2013,07,13,16,35,24.40
2013,07,13,16,36,24.40
2013,07,13,16,37,24.30
2013,07,13,16,38,24.30
2013,07,13,16,39,24.30
2013,07,13,16,40,24.30
2013,07,13,16,41,24.30
2013,07,13,16,42,24.30
2013,07,13,16,43,24.30
2013,07,13,16,44,24.40
2013,07,13,16,45,24.40
2013,07,13,16,46,24.40
2013,07,13,16,47,24.40
2013,07,13,16,48,24.40
2013,07,13,16,49,24.40
2013,07,13,16,50,24.30
2013,07,13,16,51,24.30
2013,07,13,16,52,24.30
2013,07,13,16,53,24.30
2013,07,13,16,54,24.30
2013,07,13,16,55,24.30
2013,07,13,16,56,24.30
2013,07,13,16,57,24.30
2013,07,13,16,58,24.30
2013,07,13,16,59,24.30
2013,07,13,17,00,24.30
2013,07,13,17,01,24.30
2013,07,13,17,02,24.30
2013,07,13,17,03,24.30
2013,07,13,17,04,24.20
2013,07,13,17,05,24.00
2013,07,13,17,06,23.80
2013,07,13,17,07,23.70
2013,07,13,17,08,23.60
2013,07,13,17,09,23.40
2013,07,13,17,10,23.30
2013,07,13,17,11,23.10
2013,07,13,17,12,23.00
2013,07,13,17,13,22.90
2013,07,13,17,14,22.80
2013,07,13,17,15,22.70
2013,07,13,17,16,22.70
2013,07,13,17,17,22.70
2013,07,13,17,18,22.70
2013,07,13,17,19,22.60